Regional Weather Roundup
Issued by NWS

Home | Current Version | Previous Version | Text Only | Print | Product List | Glossary Off
Versions: 1 2 3 4 5 6 7 8 9 10 11 12 13 14 15 16 17 18 19 20 21 22 23 24 25 26 27

000
ASUS45 KBOU 250307
RWRCO

WEATHER ROUNDUP FOR COLORADO
NATIONAL WEATHER SERVICE DENVER/BOULDER CO
900 PM MDT FRI OCT 24 2014

NOTE: "FAIR" INDICATES FEW OR NO CLOUDS BELOW 12000 FEET WITH NO
SIGNIFICANT WEATHER AND/OR OBSTRUCTIONS TO VISIBILITY.

COZ001>005-013-030-031-250400-
...NORTHWEST COLORADO...

CITY           SKY/WX    TMP DP  RH WIND       PRES   REMARKS
CRAIG          CLEAR     53  28  38 S3        30.28R
HAYDEN         CLEAR     57  21  24 CALM      30.30R
MEEKER         CLEAR     47  31  53 NE5       30.31R
MOUNT WERNER   NOT AVBL
STEAMBOAT SPGS CLEAR     51  27  39 E3        30.32S
WALDEN         CLEAR     50  21  32 S9        30.38R
$$

COZ006>008-011-250400-
...WEST CENTRAL VALLEYS...

CITY           SKY/WX    TMP DP  RH WIND       PRES   REMARKS
GRAND JUNCTION CLEAR     52  34  50 NE8       30.22S
MONTROSE       CLEAR     52  34  50 SE9       30.31R
EAGLE          CLEAR     48  30  49 E6        30.36R
RIFLE          CLEAR     52  33  48 SE7       30.28R
DELTA          CLEAR     57  34  41 N5        30.26R
NUCLA          HAZE      55  28  35 E10       30.32S VSB 1
$$

COZ017>023-064>068-250400-
...SOUTHWEST COLORADO...

CITY           SKY/WX    TMP DP  RH WIND       PRES   REMARKS
DURANGO        CLEAR     51  34  52 NE6       30.35R
CORTEZ         CLEAR     47  29  49 NE10      30.31R
PAGOSA SPRINGS CLEAR     48  32  53 CALM      30.43R
TELLURIDE      CLEAR     49  27  42 SE7       30.51S
WOLF CREEK PAS CLEAR     39  27  60 SW15        N/A
$$

COZ009-010-012-014-032>034-037-058>063-250400-
...CENTRAL COLORADO...

CITY           SKY/WX    TMP DP  RH WIND       PRES   REMARKS
ASPEN          CLEAR     45  27  49 S9        30.41R
BUENA VISTA    PTCLDY    49  17  28 CALM      30.42R
COPPER MTN     CLEAR     45  14  29 S14       30.64S
BERTHOUD PASS  FAIR      36  32  87 W14G20    30.66F
COTTONWOOD PAS PTCLDY    54   9  16 NW5       30.53R
GUNNISON       CLEAR     48  19  32 CALM      30.44R
KREMMLING      CLEAR     45  19  36 NW3         N/A
LEADVILLE      CLEAR     38  19  46 E5        30.51S
MONARCH PASS   PTCLDY    41  14  33 W22       30.74S
SALIDA         PTCLDY    56  22  27 W8        30.45R
SUNLIGHT       CLEAR     45  23  42 CALM      30.59R
WILKERSON PASS NOT AVBL
$$

COZ069>075-250400-
...SAN LUIS VALLEY/SANGRE DE CRISTO MOUNTAINS...

CITY           SKY/WX    TMP DP  RH WIND       PRES   REMARKS
ALAMOSA        PTCLDY    45  23  42 NW7       30.37R
LA VETA PASS   CLEAR     52  14  22 S7        30.54S
SAGUACHE       PTCLDY    46  23  39 NW6       30.41S
$$

COZ035-036-038>040-250400-
...NORTHERN COLORADO FRONT RANGE...

CITY           SKY/WX    TMP DP  RH WIND       PRES   REMARKS
DENVER INTL AP CLEAR     56  27  32 S13       30.19S
DMNS CITY PARK   N/A     61  29  30 SW3       30.20R
AURORA         CLEAR     53  29  40 S9        30.22S
FRONT RANGE AP CLEAR     54  34  47 S9        30.21
ERIE MUNI ARPT CLEAR     53  29  41 S6        30.19R
BOULDER MUN AP CLEAR     66  19  16 SE7       30.19R
CENTENNIAL     CLEAR     58  28  32 S8        30.23R
BROOMFIELD     CLEAR     66  23  19 W3        30.22R
FORT COLLINS   CLEAR     59  30  33 CALM      30.19R
LONGMONT       CLEAR     57  27  31 W7        30.20R
$$

COZ041-046-047-076>085-087-088-250400-
...PIKES PEAK/PALMER DIVIDE AND SOUTHERN FOOTHILLS...

CITY           SKY/WX    TMP DP  RH WIND       PRES   REMARKS
COLO. SPRINGS  CLEAR     52  28  39 N7        30.28R
A. F. ACADEMY  CLEAR     47  27  44 NE3       30.29R
ELLICOTT       NOT AVBL
FALCON         CLEAR     49  25  39 SW5       30.32R
FORT CARSON    CLEAR     62  23  23 W9        30.24R
LIMON          CLEAR     44  32  62 N6        30.21R
MONUMENT HILL  CLEAR     48  23  37 SW3       30.30R
TRINIDAD       CLEAR     56  35  45 W9        30.23R
$$

COZ042>045-048>051-090-091-250400-
...NORTHEAST COLORADO...

CITY           SKY/WX    TMP DP  RH WIND       PRES   REMARKS
GREELEY ARPT   CLEAR     55  30  38 CALM      30.16R
AKRON          CLEAR     58  24  27 S7        30.15R
BURLINGTON     CLEAR     54  29  38 SW3       30.14R
WRAY           CLEAR     59  29  32 CALM      30.10R
STERLING       CLEAR     52  34  50 N3        30.11R
HOLYOKE        CLEAR     57  36  44 SW3       30.10R
FORT MORGAN    CLEAR     63  23  21 CALM      30.15R
$$

COZ086-089-092>099-250400-
...SOUTHEAST COLORADO...

CITY           SKY/WX    TMP DP  RH WIND       PRES   REMARKS
PUEBLO         CLEAR     54  26  34 NW5       30.16R
LA JUNTA       CLEAR     63  34  33 E7        30.12R
LAMAR          CLEAR     60  38  43 CALM      30.09R
SPRINGFIELD      N/A     55  38  52 SW10      30.15R
$$



USA.gov is the U.S. government's official web portal to all federal, state and local government web resources and services.